Regional Weather Roundup
Issued by NWS

Home | Current Version | Previous Version | Text Only | Print | Product List | Glossary Off
Versions: 1 2 3 4 5 6 7 8 9 10 11 12 13 14 15 16 17 18 19 20 21 22 23 24 25 26 27 28 29 30 31 32 33 34 35 36 37 38 39 40 41 42 43 44 45 46 47 48 49 50

000
ASUS43 KDTX 140401
RWRMI
MICHIGAN HOURLY REGIONAL WEATHER ROUNDUP
NATIONAL WEATHER SERVICE DETROIT/PONTIAC MI
1100 PM EST SAT FEB 13 2016

NOTE: "FAIR" INDICATES FEW OR NO CLOUDS BELOW 12,000 FEET WITH NO
SIGNIFICANT WEATHER AND/OR OBSTRUCTION TO VISIBILITY.

MIZ047>049-052>055-059>063-066>070-074>076-081>083-140500-
SOUTHEAST LOWER MICHIGAN

CITY           SKY/WX    TMP DP  RH WIND       PRES   REMARKS
ADRIAN         CLOUDY    12   6  77 NW3       30.47R
ALMA           CLEAR      8   0  72 CALM      30.46S
ANN ARBOR      CLEAR      0  -3  87 CALM      30.45S
BAD AXE        PTCLDY    -8 -12  82 CALM      30.44S
CARO           CLOUDY    -6  -9  84 CALM      30.45S
DETROIT CITY   CLEAR      6  -2  69 CALM      30.46F
DETROIT        PTCLDY     8   4  83 CALM      30.48S
FLINT          CLOUDY    -1  -9  68 CALM      30.45S
GROSSE ILE     CLEAR      9   3  78 CALM      30.46S
HILLSDALE      CLOUDY    10  -1  63 NW6       30.42S WCI   0
HOWELL         CLOUDY     1  -2  86 CALM      30.43F

CITY           SKY/WX    TMP DP  RH WIND       PRES   REMARKS
JACKSON        CLOUDY     9  -2  61 W6        30.44S WCI  -1
LAMBERTVILLE   CLOUDY    13   3  64 N3        30.48R
LANSING        CLOUDY    10   1  67 W3        30.46S
LAPEER         MOCLDY    -8 -11  86 CALM      30.44S
MASON          PTCLDY     3  -2  80 CALM      30.45R
MONROE         CLEAR      8   3  80 CALM      30.46F
MT. CLEMENS    CLEAR      1  -6  71 CALM      30.45S
PONTIAC        CLOUDY     0  -4  83 CALM      30.42S
PORT HOPE        N/A     11   0  61 NW14G23   30.42S WCI  -5
PORT HURON     CLEAR     -8 -11  84 CALM      30.46S
TRI CITIES     CLOUDY     9   0  67 W5        30.46S WCI   1
MIDLAND        CLOUDY     5  -1  76 CALM      30.45S
TROY           CLEAR      9   0  68 CALM      30.47S
SAGINAW HB     CLOUDY     9   5  85 SW5       30.46S WCI   0
$$
MIZ043>046-050>051-056>058-064>065-071>073-077>080-140500-
SOUTHWEST LOWER MICHIGAN

CITY           SKY/WX    TMP DP  RH WIND       PRES   REMARKS
BATTLE CREEK   CLOUDY    11   1  64 N7        30.45S WCI   0
BENTON HARBOR  CLOUDY    16   5  62 CALM      30.48S
BIG RAPIDS     CLOUDY     7   2  82 W3        30.42S
COLDWATER      CLOUDY    12   6  76 CALM      30.45S
FREMONT        CLOUDY    10   4  77 CALM      30.45S
HOLLAND        CLOUDY    13   3  64 E3        30.48S
GRAND RAPIDS   MOCLDY    11   0  61 CALM      30.46S
IONIA          FAIR       9   0  68 W3        30.45S
KALAMAZOO      CLOUDY    12   6  77 N3        30.46S
LUDINGTON      CLOUDY    12   6  75 CALM      30.46S
MARSHALL       CLOUDY    11   3  68 CALM      30.45S
MOUNT PLEASANT CLOUDY     9   1  68 W5        30.43F WCI   1
MUSKEGON       FLURRIES  13   3  64 E5        30.48S WCI   5
SOUTH HAVEN    CLOUDY    15   8  76 NE3       30.47S
$$
MIZ016>042-140500-
NORTHERN LOWER MICHIGAN

CITY           SKY/WX    TMP DP  RH WIND       PRES   REMARKS
ALPENA         CLOUDY    -3 -10  72 SW3       30.42R
BEAVER ISLAND  MOCLDY    12   3  67 NW7       30.41F WCI   2
BELLAIRE       CLOUDY    10   7  89 CALM      30.44S
CADILLAC       FLURRIES   3  -1  83 CALM      30.37S
CHARLEVOIX     CLOUDY    14   1  56 NW9       30.45S WCI   2
FRANKFORT      CLOUDY    14   3  61 CALM      30.44S
GAYLORD        CLOUDY     0  -4  83 CALM      30.35S
GRAYLING       CLOUDY     1  -3  80 CALM      30.39S
HARBOR SPRINGS MOCLDY     4  -1  80 CALM      30.41S
HOUGHTON LAKE  FLURRIES   8   3  80 W6        30.39S WCI  -2
MANISTEE       CLOUDY    10   1  67 SE3       30.45S
OSCODA         CLEAR    -10 -16  75 SW5       30.44S WCI -22
PELLSTON       PTCLDY    -9 -13  83 CALM      30.41S
ROGERS CITY    LGT SNOW   5  -3  70 W8        30.42R WCI  -8
TRAVERSE CITY  CLOUDY    13   3  64 W9        30.43S WCI   1
$$
MIZ007>008-015-140500-
EASTERN UPPER MICHIGAN

CITY           SKY/WX    TMP DP  RH WIND       PRES   REMARKS
KINROSS        CLEAR     -2  -6  84 E3        30.40S
MACKINAC ISLAN LGT SNOW   6   2  86 N5        30.40S WCI  -3
NEWBERRY       LGT SNOW   5   3  90 SW8       30.37F WCI  -8
S. S. MARIE    CLEAR     -3 -12  65 E3        30.42R
$$
MIZ004>006-011>014-085-140500-
CENTRAL UPPER MICHIGAN

CITY           SKY/WX    TMP DP  RH WIND       PRES   REMARKS
MANISTIQUE     CLEAR     -1  -7  74 W6        30.42F WCI -12
ESCANABA       CLOUDY    -6 -18  54 CALM      30.44F
MENOMINEE      CLOUDY     0  -8  71 CALM      30.44S
SAWYER-GWINN   CLOUDY    -6 -10  86 CALM      30.36F
$$
MIZ001>003-009>011-084-140500-
WESTERN UPPER MICHIGAN

CITY           SKY/WX    TMP DP  RH WIND       PRES   REMARKS
IRON MOUNTAIN  CLOUDY    -9 -15  75 CALM      30.37F
HOUGHTON       MOCLDY    -1  -5  82 S5        30.35F WCI -11
COPPER HARBOR    N/A      7   3  84 SW3       30.38F
IRONWOOD       CLEAR    -17 -26  63 CALM      30.32S
$$

ABBREVIATIONS USED IN REMARKS
   TC - TEMPERATURE IN CELSIUS
  WCI - WIND CHILL INDEX
   HX - HEAT INDEX
  VSB - VISIBILITY




USA.gov is the U.S. government's official web portal to all federal, state and local government web resources and services.